Showing default

GALILEO 20 (2C6), 43056

Orbit data source: Space-Track

GALILEO 20 (2C6), 43056 is a payload satellite owned by GNSS Agency (ESA) that was launched on Tue, 12 Dec 2017 UTC via an ARIANE 5ES launch vehicle from the French Guiana (FRGUI). Payloads include a variety of satellites, spacecraft, and rockets equipped with specific instruments for various scientific and technological missions. These include communications satellites like Starlink; space stations such as the ISS; scientific satellites like the Hubble; Earth observation satellites from companies like Planet Labs, Umbra, and HawkEye 360; GPS; miniature CubeSats for education and research; and military/defense satellites.

Loading next visibility...
GALILEO 20 (2C6) details
Identifier
43056, 2017-079B
Orbit
Active
Last TLE update3 days ago
Origin
Flag of ESAGNSS Agency (ESA)
ManufacturerOHB
MissionOperational Civil Navigation
Bus & MotorGALILEOSAT, AOCS
Mass715 kg wet, 700 kg dry
Launch date (UTC)
2017-12-12 (7 years ago)
Launch vehicle
ARIANE 5ES
Launch site
French Guiana (FRGUI)
Object type
Payload
Rocket body
Debris
Shape & HBRBox + 2 Pan, 14.71 m
Radar Cross Section9.223 m², Large (>1 m²)

Expand to show TLE details & history

TLE from 3 days ago
0 GALILEO 20 (2C6)
1 43056U 17079B   24358.47840791  .00000028  00000-0  00000-0 0  9994
2 43056  55.2600 236.3879 0002340 323.8731  36.1921  1.70474181 43789
Epoch: 2024-12-23T11:28Z
Definitive object data (Epoch: 2024-12-23T11:28:54.443Z)
Latitude0.00002°
Longitude-28.32972°
Altitude23,216.834 km
Speed3.67 km/s
True Right ascension15h 45m 35s
True Declination0° 00' 00"
Sunlit
Object was in daylight at TLE epoch
Visualization TLE readout
Latitude53.11854°
Longitude38.91525°
Altitude23,232.297 km
Speed3.67 km/s
Apparent Right ascension21h 01m 47s
Apparent Declination43° 26' 42"
Sunlit
Object is in daylight
Visualization observer readout
Local Sidereal Time12:13:36
Azimuth32.712° NE
Elevation3.916°
Doppler factor1
Orbital elements
Apogee altitude23,229.088 km
Perigee altitude23,215.235 km
Semi-major axis29,600.298 km
Eccentricity0.000234
Inclination55.26°
RAAN236.3879°
Arg. of periapsis323.8731°
True anomaly36.20794°
Mean anomaly36.1921°
Eccentric anomaly36.20002°
Mean motion0.42619 °/min
BSTARUnknown
Orbital period844.7 mins
Loading maneuver chart data...
Loading historical data...
Loading historical data...
Loading historical data...
Loading historical data...
Loading historical data...
Loading historical data...
Loading historical data...

GALILEO 20 (2C6) Visibility forecast

Observer location: undefined°, undefined

Span
Click to sort rows by Start time (UTC) header in descending order
Start Az.
Max El. time (UTC)
Max El. Az.
Max El.
End time (UTC)
End Az.
316 mins2024-12-27 02:31:01.541Z315.166° NNW2024-12-27 05:10:01.541Z278.624° WNW36.558°2024-12-27 07:47:01.541Z221.528° SW
|